TimeEDT,TemperatureF,Dew PointF,Humidity,Sea Level PressureIn,VisibilityMPH,Wind Direction,Wind SpeedMPH,Gust SpeedMPH,PrecipitationIn,Events,Conditions,WindDirDegrees,DateUTC
12:55 AM,44.1,39.0,82,30.07,9.0,SW,4.6,-,N/A,,Overcast,220,2011-11-01 04:55:00
1:55 AM,44.1,37.9,79,30.08,10.0,SW,5.8,-,N/A,,Overcast,220,2011-11-01 05:55:00
2:55 AM,43.0,37.9,82,30.09,9.0,SSW,4.6,-,N/A,,Overcast,200,2011-11-01 06:55:00
3:03 AM,42.8,37.4,81,30.08,9.0,SSW,5.8,-,N/A,,Overcast,200,2011-11-01 07:03:00
3:26 AM,42.8,37.4,81,30.08,9.0,South,4.6,-,N/A,,Overcast,190,2011-11-01 07:26:00
3:55 AM,43.0,37.9,82,30.09,9.0,South,3.5,-,N/A,,Overcast,170,2011-11-01 07:55:00
4:55 AM,42.1,37.9,85,30.09,8.0,SSE,4.6,-,N/A,,Overcast,160,2011-11-01 08:55:00
5:55 AM,42.1,37.9,85,30.09,7.0,South,5.8,-,N/A,,Overcast,170,2011-11-01 09:55:00
6:55 AM,43.0,37.9,82,30.09,8.0,South,8.1,-,N/A,,Overcast,180,2011-11-01 10:55:00
7:55 AM,43.0,37.9,82,30.08,7.0,South,8.1,-,N/A,,Overcast,170,2011-11-01 11:55:00
8:55 AM,43.0,37.9,82,30.09,7.0,South,6.9,-,N/A,,Overcast,180,2011-11-01 12:55:00
9:11 AM,42.8,37.4,81,30.08,8.0,South,8.1,-,N/A,,Overcast,180,2011-11-01 13:11:00
11:31 AM,46.4,37.4,71,30.07,10.0,SSE,8.1,-,N/A,,Overcast,160,2011-11-01 15:31:00
11:55 AM,46.0,39.0,76,30.07,10.0,SSE,6.9,-,N/A,,Overcast,160,2011-11-01 15:55:00
12:55 PM,46.9,37.9,71,30.07,10.0,South,11.5,-,N/A,,Overcast,190,2011-11-01 16:55:00
1:55 PM,48.0,39.0,71,30.05,10.0,South,12.7,-,N/A,,Overcast,190,2011-11-01 17:55:00
2:55 PM,50.0,39.0,66,30.05,10.0,SSW,11.5,-,N/A,,Mostly Cloudy,200,2011-11-01 18:55:00
3:55 PM,50.0,37.9,63,30.04,9.0,SSW,10.4,-,N/A,,Overcast,200,2011-11-01 19:55:00
4:55 PM,46.9,41.0,80,30.04,5.0,South,8.1,-,0.01,Rain,Light Rain,190,2011-11-01 20:55:00
5:55 PM,46.0,42.1,86,30.04,5.0,ESE,4.6,-,0.01,,Overcast,110,2011-11-01 21:55:00
6:55 PM,46.0,42.1,86,30.02,7.0,SE,6.9,-,0.00,,Overcast,130,2011-11-01 22:55:00
7:55 PM,46.0,41.0,83,30.02,8.0,East,5.8,-,N/A,,Mostly Cloudy,100,2011-11-01 23:55:00
8:55 PM,46.0,39.9,79,30.01,8.0,ESE,6.9,-,0.00,Rain,Light Rain,110,2011-11-02 00:55:00
9:55 PM,46.0,39.9,79,30.02,10.0,ESE,6.9,-,0.00,,Mostly Cloudy,110,2011-11-02 01:55:00
10:55 PM,46.9,39.9,77,30.04,10.0,ESE,6.9,-,N/A,,Mostly Cloudy,110,2011-11-02 02:55:00
11:55 PM,46.9,39.9,77,30.01,10.0,ESE,5.8,-,N/A,,Clear,120,2011-11-02 03:55:00